owner,sensor,date,latitude,longitude,vertical_datum,sea_water_temperature,qcFlag
BP,ioos:station:wmo:42369:2,2021-12-01T00:19:00Z,27.2135,-90.2781,451.4,13.7,11111222
BP,ioos:station:wmo:42369:2,2021-12-01T00:39:00Z,27.2135,-90.2781,452.7,13.6,11111222
BP,ioos:station:wmo:42369:2,2021-12-01T00:59:00Z,27.2136,-90.2781,452.2,13.6,11111222
BP,ioos:station:wmo:42369:2,2021-12-01T01:19:00Z,27.2137,-90.2784,452.6,13.6,11111222
BP,ioos:station:wmo:42369:2,2021-12-01T01:39:00Z,27.2138,-90.2787,452.6,13.5,11111222
BP,ioos:station:wmo:42369:2,2021-12-01T01:59:00Z,27.2139,-90.2788,453.4,13.6,11111222
BP,ioos:station:wmo:42369:2,2021-12-01T02:19:00Z,27.2140,-90.2788,454.1,13.6,11111222
BP,ioos:station:wmo:42369:2,2021-12-01T02:39:00Z,27.2140,-90.2789,454.1,13.6,11111222
BP,ioos:station:wmo:42369:2,2021-12-01T02:59:00Z,27.2140,-90.2788,455.2,13.5,11111222
BP,ioos:station:wmo:42369:2,2021-12-01T03:19:00Z,27.2141,-90.2788,456.0,13.4,11111222
BP,ioos:station:wmo:42369:2,2021-12-01T03:39:00Z,27.2142,-90.2789,457.1,13.5,11111222
BP,ioos:station:wmo:42369:2,2021-12-01T03:59:00Z,27.2142,-90.2790,457.2,13.5,11111222
BP,ioos:station:wmo:42369:2,2021-12-01T04:19:00Z,27.2143,-90.2791,457.7,13.5,11111222
BP,ioos:station:wmo:42369:2,2021-12-01T04:39:00Z,27.2143,-90.2791,458.8,13.5,11111222
BP,ioos:station:wmo:42369:2,2021-12-01T04:59:00Z,27.2144,-90.2791,459.2,13.5,11111222
BP,ioos:station:wmo:42369:2,2021-12-01T05:19:00Z,27.2143,-90.2791,459.3,13.4,11111222
BP,ioos:station:wmo:42369:2,2021-12-01T05:39:00Z,27.2143,-90.2790,459.1,13.5,11111222
BP,ioos:station:wmo:42369:2,2021-12-01T05:59:00Z,27.2144,-90.2789,460.9,13.4,11111222
BP,ioos:station:wmo:42369:2,2021-12-01T06:19:00Z,27.2143,-90.2788,460.7,13.4,11111222
BP,ioos:station:wmo:42369:2,2021-12-01T06:39:00Z,27.2143,-90.2787,461.0,13.3,11111222
BP,ioos:station:wmo:42369:2,2021-12-01T06:59:00Z,27.2142,-90.2783,461.8,13.3,11111222
BP,ioos:station:wmo:42369:2,2021-12-01T07:19:00Z,27.2141,-90.2780,461.0,13.3,11111222
BP,ioos:station:wmo:42369:2,2021-12-01T07:39:00Z,27.2139,-90.2776,459.9,13.3,11111222
BP,ioos:station:wmo:42369:2,2021-12-01T07:59:00Z,27.2139,-90.2777,460.0,13.3,11111222
BP,ioos:station:wmo:42369:2,2021-12-01T08:19:00Z,27.2138,-90.2776,460.0,13.3,11111222
BP,ioos:station:wmo:42369:2,2021-12-01T08:39:00Z,27.2138,-90.2775,460.3,13.4,11111222
BP,ioos:station:wmo:42369:2,2021-12-01T08:59:00Z,27.2139,-90.2775,461.2,13.4,11111222
BP,ioos:station:wmo:42369:2,2021-12-01T09:19:00Z,27.2139,-90.2776,461.7,13.3,11111222
BP,ioos:station:wmo:42369:2,2021-12-01T09:39:00Z,27.2140,-90.2777,462.2,13.3,11111222
BP,ioos:station:wmo:42369:2,2021-12-01T09:59:00Z,27.2140,-90.2777,462.3,13.3,11111222
BP,ioos:station:wmo:42369:2,2021-12-01T10:19:00Z,27.2142,-90.2779,463.0,13.2,11111222
BP,ioos:station:wmo:42369:2,2021-12-01T10:39:00Z,27.2143,-90.2780,465.4,13.2,11111222
BP,ioos:station:wmo:42369:2,2021-12-01T10:59:00Z,27.2143,-90.2780,466.5,13.2,11111222
BP,ioos:station:wmo:42369:2,2021-12-01T11:19:00Z,27.2143,-90.2780,468.1,13.2,11111222
BP,ioos:station:wmo:42369:2,2021-12-01T11:39:00Z,27.2143,-90.2778,468.4,13.2,11111222
BP,ioos:station:wmo:42369:2,2021-12-01T11:59:00Z,27.2142,-90.2777,464.8,13.3,11111222
BP,ioos:station:wmo:42369:2,2021-12-01T12:19:00Z,27.2139,-90.2776,461.0,13.3,11111222
BP,ioos:station:wmo:42369:2,2021-12-01T12:39:00Z,27.2138,-90.2774,461.1,13.4,11111222
BP,ioos:station:wmo:42369:2,2021-12-01T12:59:00Z,27.2137,-90.2773,459.5,13.4,11111222
BP,ioos:station:wmo:42369:2,2021-12-01T13:19:00Z,27.2137,-90.2773,460.4,13.4,11111222
BP,ioos:station:wmo:42369:2,2021-12-01T13:39:00Z,27.2137,-90.2772,461.1,13.4,11111222
BP,ioos:station:wmo:42369:2,2021-12-01T13:59:00Z,27.2136,-90.2771,460.4,13.5,11111222
BP,ioos:station:wmo:42369:2,2021-12-01T14:19:00Z,27.2136,-90.2772,458.4,13.5,11111222
BP,ioos:station:wmo:42369:2,2021-12-01T14:39:00Z,27.2135,-90.2773,457.7,13.5,11111222
BP,ioos:station:wmo:42369:2,2021-12-01T14:59:00Z,27.2135,-90.2773,456.5,13.5,11111222
BP,ioos:station:wmo:42369:2,2021-12-01T15:19:00Z,27.2135,-90.2774,456.2,13.6,11111222
BP,ioos:station:wmo:42369:2,2021-12-01T15:39:00Z,27.2135,-90.2774,455.7,13.6,11111222
BP,ioos:station:wmo:42369:2,2021-12-01T15:59:00Z,27.2135,-90.2776,454.9,13.6,11111222
BP,ioos:station:wmo:42369:2,2021-12-01T16:19:00Z,27.2135,-90.2776,455.1,13.6,11111222
BP,ioos:station:wmo:42369:2,2021-12-01T16:39:00Z,27.2134,-90.2777,454.5,13.7,11111222
BP,ioos:station:wmo:42369:2,2021-12-01T16:59:00Z,27.2135,-90.2778,453.5,13.8,11111222
BP,ioos:station:wmo:42369:2,2021-12-01T17:19:00Z,27.2135,-90.2779,453.5,13.8,11111222
BP,ioos:station:wmo:42369:2,2021-12-01T17:39:00Z,27.2135,-90.2779,453.1,13.8,11111222
BP,ioos:station:wmo:42369:2,2021-12-01T17:59:00Z,27.2135,-90.2780,452.2,13.8,11111222
BP,ioos:station:wmo:42369:2,2021-12-01T18:19:00Z,27.2135,-90.2781,451.9,13.7,11111222
BP,ioos:station:wmo:42369:2,2021-12-01T18:39:00Z,27.2135,-90.2782,451.4,13.7,11111222
BP,ioos:station:wmo:42369:2,2021-12-01T18:59:00Z,27.2135,-90.2783,451.1,13.8,11111222
BP,ioos:station:wmo:42369:2,2021-12-01T19:19:00Z,27.2135,-90.2785,450.1,13.8,11111222
BP,ioos:station:wmo:42369:2,2021-12-01T19:39:00Z,27.2135,-90.2785,449.6,13.8,11111222
BP,ioos:station:wmo:42369:2,2021-12-01T19:59:00Z,27.2135,-90.2788,450.0,13.8,11111222
BP,ioos:station:wmo:42369:2,2021-12-01T20:19:00Z,27.2135,-90.2789,449.2,13.8,11111222
BP,ioos:station:wmo:42369:2,2021-12-01T20:39:00Z,27.2135,-90.2789,448.7,13.9,11111222
BP,ioos:station:wmo:42369:2,2021-12-01T20:59:00Z,27.2135,-90.2791,448.2,14.0,11111222
BP,ioos:station:wmo:42369:2,2021-12-01T21:19:00Z,27.2135,-90.2791,448.6,13.9,11111222
BP,ioos:station:wmo:42369:2,2021-12-01T21:39:00Z,27.2135,-90.2790,448.0,14.0,11111222
BP,ioos:station:wmo:42369:2,2021-12-01T21:59:00Z,27.2135,-90.2790,448.6,13.9,11111222
BP,ioos:station:wmo:42369:2,2021-12-01T22:19:00Z,27.2135,-90.2790,448.6,13.8,11111222
BP,ioos:station:wmo:42369:2,2021-12-01T22:39:00Z,27.2135,-90.2790,448.6,13.9,11111222
BP,ioos:station:wmo:42369:2,2021-12-01T22:59:00Z,27.2135,-90.2790,448.4,13.9,11111222
BP,ioos:station:wmo:42369:2,2021-12-01T23:19:00Z,27.2134,-90.2791,447.7,13.9,11111222
BP,ioos:station:wmo:42369:2,2021-12-01T23:39:00Z,27.2134,-90.2792,448.7,13.8,11111222
BP,ioos:station:wmo:42369:2,2021-12-01T23:59:00Z,27.2135,-90.2792,448.2,13.8,11111222
BP,ioos:station:wmo:42369:2,2021-12-02T00:19:00Z,27.2135,-90.2793,448.1,13.8,11111222
BP,ioos:station:wmo:42369:2,2021-12-02T00:39:00Z,27.2135,-90.2793,448.8,13.8,11111222
BP,ioos:station:wmo:42369:2,2021-12-02T00:59:00Z,27.2136,-90.2793,448.6,13.8,11111222
BP,ioos:station:wmo:42369:2,2021-12-02T01:19:00Z,27.2136,-90.2793,449.8,13.8,11111222
BP,ioos:station:wmo:42369:2,2021-12-02T01:39:00Z,27.2136,-90.2794,448.8,13.8,11111222
BP,ioos:station:wmo:42369:2,2021-12-02T01:59:00Z,27.2136,-90.2794,448.9,13.8,11111222
BP,ioos:station:wmo:42369:2,2021-12-02T02:19:00Z,27.2136,-90.2795,448.4,13.8,11111222
BP,ioos:station:wmo:42369:2,2021-12-02T02:39:00Z,27.2135,-90.2794,448.9,13.7,11111222
BP,ioos:station:wmo:42369:2,2021-12-02T02:59:00Z,27.2135,-90.2793,448.4,13.8,11111222
BP,ioos:station:wmo:42369:2,2021-12-02T03:19:00Z,27.2135,-90.2789,449.1,13.7,11111222
BP,ioos:station:wmo:42369:2,2021-12-02T03:39:00Z,27.2134,-90.2787,449.0,13.7,11111222
BP,ioos:station:wmo:42369:2,2021-12-02T03:59:00Z,27.2133,-90.2785,449.8,13.7,11111222
BP,ioos:station:wmo:42369:2,2021-12-02T04:19:00Z,27.2134,-90.2785,449.4,13.6,11111222
BP,ioos:station:wmo:42369:2,2021-12-02T04:39:00Z,27.2133,-90.2785,448.9,13.7,11111222
BP,ioos:station:wmo:42369:2,2021-12-02T04:59:00Z,27.2133,-90.2785,449.7,13.6,11111222
BP,ioos:station:wmo:42369:2,2021-12-02T05:19:00Z,27.2134,-90.2785,449.6,13.5,11111222
BP,ioos:station:wmo:42369:2,2021-12-02T05:39:00Z,27.2134,-90.2785,450.0,13.6,11111222
BP,ioos:station:wmo:42369:2,2021-12-02T05:59:00Z,27.2134,-90.2783,449.9,13.6,11111222
BP,ioos:station:wmo:42369:2,2021-12-02T06:19:00Z,27.2133,-90.2782,450.4,13.6,11111222
BP,ioos:station:wmo:42369:2,2021-12-02T06:39:00Z,27.2133,-90.2781,450.5,13.6,11111222
BP,ioos:station:wmo:42369:2,2021-12-02T06:59:00Z,27.2133,-90.2780,450.8,13.6,11111222
BP,ioos:station:wmo:42369:2,2021-12-02T07:19:00Z,27.2132,-90.2778,451.1,13.6,11111222
BP,ioos:station:wmo:42369:2,2021-12-02T07:39:00Z,27.2132,-90.2777,451.8,13.6,11111222
BP,ioos:station:wmo:42369:2,2021-12-02T07:59:00Z,27.2132,-90.2776,451.9,13.6,11111222
BP,ioos:station:wmo:42369:2,2021-12-02T08:19:00Z,27.2132,-90.2776,451.1,13.6,11111222
BP,ioos:station:wmo:42369:2,2021-12-02T08:39:00Z,27.2132,-90.2776,452.8,13.5,11111222
BP,ioos:station:wmo:42369:2,2021-12-02T08:59:00Z,27.2133,-90.2776,452.1,13.6,11111222
BP,ioos:station:wmo:42369:2,2021-12-02T09:19:00Z,27.2133,-90.2776,452.5,13.6,11111222
BP,ioos:station:wmo:42369:2,2021-12-02T09:39:00Z,27.2133,-90.2776,453.1,13.5,11111222
BP,ioos:station:wmo:42369:2,2021-12-02T09:59:00Z,27.2134,-90.2777,453.2,13.4,11111222
BP,ioos:station:wmo:42369:2,2021-12-02T10:19:00Z,27.2135,-90.2778,454.0,13.4,11111222
BP,ioos:station:wmo:42369:2,2021-12-02T10:39:00Z,27.2136,-90.2779,454.8,13.3,11111222
BP,ioos:station:wmo:42369:2,2021-12-02T10:59:00Z,27.2136,-90.2779,454.0,13.3,11111222
BP,ioos:station:wmo:42369:2,2021-12-02T11:19:00Z,27.2134,-90.2777,453.9,13.3,11111222
BP,ioos:station:wmo:42369:2,2021-12-02T11:39:00Z,27.2134,-90.2777,453.0,13.4,11111222
BP,ioos:station:wmo:42369:2,2021-12-02T11:59:00Z,27.2134,-90.2777,453.0,13.5,11111222
BP,ioos:station:wmo:42369:2,2021-12-02T12:19:00Z,27.2134,-90.2777,454.1,13.5,11111222
BP,ioos:station:wmo:42369:2,2021-12-02T12:39:00Z,27.2134,-90.2777,453.6,13.4,11111222
BP,ioos:station:wmo:42369:2,2021-12-02T12:59:00Z,27.2135,-90.2778,453.2,13.4,11111222
BP,ioos:station:wmo:42369:2,2021-12-02T13:19:00Z,27.2135,-90.2779,453.1,13.4,11111222
BP,ioos:station:wmo:42369:2,2021-12-02T13:39:00Z,27.2135,-90.2780,452.8,13.4,11111222
BP,ioos:station:wmo:42369:2,2021-12-02T13:59:00Z,27.2136,-90.2781,453.1,13.4,11111222
BP,ioos:station:wmo:42369:2,2021-12-02T14:19:00Z,27.2136,-90.2783,452.2,13.3,11111222
BP,ioos:station:wmo:42369:2,2021-12-02T14:39:00Z,27.2137,-90.2785,452.2,13.4,11111222
BP,ioos:station:wmo:42369:2,2021-12-02T14:59:00Z,27.2137,-90.2786,452.2,13.3,11111222
BP,ioos:station:wmo:42369:2,2021-12-02T15:19:00Z,27.2138,-90.2791,451.8,13.3,11111222
BP,ioos:station:wmo:42369:2,2021-12-02T15:39:00Z,27.2139,-90.2793,451.8,13.4,11111222
BP,ioos:station:wmo:42369:2,2021-12-02T15:59:00Z,27.2139,-90.2793,451.8,13.4,11111222
BP,ioos:station:wmo:42369:2,2021-12-02T16:19:00Z,27.2139,-90.2794,450.9,13.4,11111222
BP,ioos:station:wmo:42369:2,2021-12-02T16:39:00Z,27.2139,-90.2795,451.0,13.6,11111222
BP,ioos:station:wmo:42369:2,2021-12-02T16:59:00Z,27.2139,-90.2796,451.3,13.7,11111222
BP,ioos:station:wmo:42369:2,2021-12-02T17:19:00Z,27.2138,-90.2794,451.2,13.6,11111222
BP,ioos:station:wmo:42369:2,2021-12-02T17:39:00Z,27.2138,-90.2791,451.9,13.7,11111222
BP,ioos:station:wmo:42369:2,2021-12-02T17:59:00Z,27.2138,-90.2791,452.2,13.7,11111222
BP,ioos:station:wmo:42369:2,2021-12-02T18:19:00Z,27.2139,-90.2791,452.9,13.7,11111222
BP,ioos:station:wmo:42369:2,2021-12-02T18:39:00Z,27.2139,-90.2791,452.9,13.7,11111222
BP,ioos:station:wmo:42369:2,2021-12-02T18:59:00Z,27.2139,-90.2791,454.0,13.7,11111222
BP,ioos:station:wmo:42369:2,2021-12-02T19:19:00Z,27.2139,-90.2791,454.1,13.8,11111222
BP,ioos:station:wmo:42369:2,2021-12-02T19:39:00Z,27.2139,-90.2791,453.5,13.8,11111222
BP,ioos:station:wmo:42369:2,2021-12-02T19:59:00Z,27.2139,-90.2790,454.3,13.8,11111222
BP,ioos:station:wmo:42369:2,2021-12-02T20:19:00Z,27.2139,-90.2790,454.8,13.8,11111222
BP,ioos:station:wmo:42369:2,2021-12-02T20:39:00Z,27.2140,-90.2789,455.3,13.8,11111222
BP,ioos:station:wmo:42369:2,2021-12-02T20:59:00Z,27.2139,-90.2789,454.6,13.8,11111222
BP,ioos:station:wmo:42369:2,2021-12-02T21:19:00Z,27.2139,-90.2788,454.3,13.8,11111222
BP,ioos:station:wmo:42369:2,2021-12-02T21:39:00Z,27.2139,-90.2788,454.1,13.7,11111222
BP,ioos:station:wmo:42369:2,2021-12-02T21:59:00Z,27.2139,-90.2789,453.8,13.8,11111222
BP,ioos:station:wmo:42369:2,2021-12-02T22:19:00Z,27.2139,-90.2789,454.5,13.8,11111222
BP,ioos:station:wmo:42369:2,2021-12-02T22:39:00Z,27.2139,-90.2790,454.4,13.8,11111222
BP,ioos:station:wmo:42369:2,2021-12-02T22:59:00Z,27.2139,-90.2790,454.9,13.8,11111222
BP,ioos:station:wmo:42369:2,2021-12-02T23:19:00Z,27.2139,-90.2790,454.5,13.8,11111222
BP,ioos:station:wmo:42369:2,2021-12-02T23:39:00Z,27.2139,-90.2790,454.3,13.8,11111222
BP,ioos:station:wmo:42369:2,2021-12-02T23:59:00Z,27.2139,-90.2790,453.6,13.8,11111222
BP,ioos:station:wmo:42369:2,2021-12-03T00:19:00Z,27.2139,-90.2791,454.1,13.8,11111222
BP,ioos:station:wmo:42369:2,2021-12-03T00:39:00Z,27.2139,-90.2791,454.2,13.8,11111222
BP,ioos:station:wmo:42369:2,2021-12-03T00:59:00Z,27.2139,-90.2792,453.9,13.8,11111222
BP,ioos:station:wmo:42369:2,2021-12-03T01:19:00Z,27.2139,-90.2792,454.4,13.8,11111222
BP,ioos:station:wmo:42369:2,2021-12-03T01:39:00Z,27.2139,-90.2792,453.8,13.8,11111222
BP,ioos:station:wmo:42369:2,2021-12-03T01:59:00Z,27.2139,-90.2792,454.3,13.8,11111222
BP,ioos:station:wmo:42369:2,2021-12-03T02:19:00Z,27.2140,-90.2793,454.0,13.8,11111222
BP,ioos:station:wmo:42369:2,2021-12-03T02:39:00Z,27.2140,-90.2794,454.8,13.8,11111222
BP,ioos:station:wmo:42369:2,2021-12-03T02:59:00Z,27.2141,-90.2794,454.7,13.8,11111222
BP,ioos:station:wmo:42369:2,2021-12-03T03:19:00Z,27.2141,-90.2794,455.2,13.8,11111222
BP,ioos:station:wmo:42369:2,2021-12-03T03:39:00Z,27.2142,-90.2794,455.7,13.7,11111222
BP,ioos:station:wmo:42369:2,2021-12-03T03:59:00Z,27.2142,-90.2794,456.1,13.7,11111222
BP,ioos:station:wmo:42369:2,2021-12-03T04:19:00Z,27.2142,-90.2794,457.1,13.7,11111222
BP,ioos:station:wmo:42369:2,2021-12-03T04:39:00Z,27.2142,-90.2794,456.8,13.8,11111222
BP,ioos:station:wmo:42369:2,2021-12-03T04:59:00Z,27.2142,-90.2794,456.5,13.8,11111222
BP,ioos:station:wmo:42369:2,2021-12-03T05:19:00Z,27.2142,-90.2796,457.1,13.8,11111222
BP,ioos:station:wmo:42369:2,2021-12-03T05:39:00Z,27.2143,-90.2796,457.7,13.8,11111222
BP,ioos:station:wmo:42369:2,2021-12-03T05:59:00Z,27.2143,-90.2796,457.8,13.8,11111222
BP,ioos:station:wmo:42369:2,2021-12-03T06:19:00Z,27.2143,-90.2796,458.7,13.8,11111222
BP,ioos:station:wmo:42369:2,2021-12-03T06:39:00Z,27.2142,-90.2794,458.1,13.8,11111222
BP,ioos:station:wmo:42369:2,2021-12-03T06:59:00Z,27.2142,-90.2793,458.1,13.7,11111222
BP,ioos:station:wmo:42369:2,2021-12-03T07:19:00Z,27.2142,-90.2793,458.4,13.7,11111222
BP,ioos:station:wmo:42369:2,2021-12-03T07:39:00Z,27.2143,-90.2792,459.5,13.5,11111222
BP,ioos:station:wmo:42369:2,2021-12-03T07:59:00Z,27.2143,-90.2792,458.6,13.5,11111222
BP,ioos:station:wmo:42369:2,2021-12-03T08:19:00Z,27.2143,-90.2792,459.4,13.3,11111222
BP,ioos:station:wmo:42369:2,2021-12-03T08:39:00Z,27.2143,-90.2792,460.1,13.2,11111222
BP,ioos:station:wmo:42369:2,2021-12-03T08:59:00Z,27.2143,-90.2793,460.1,13.2,11111222
BP,ioos:station:wmo:42369:2,2021-12-03T09:19:00Z,27.2143,-90.2790,460.3,13.3,11111222
BP,ioos:station:wmo:42369:2,2021-12-03T09:39:00Z,27.2142,-90.2787,460.1,13.4,11111222
BP,ioos:station:wmo:42369:2,2021-12-03T09:59:00Z,27.2142,-90.2787,460.1,13.2,11111222
BP,ioos:station:wmo:42369:2,2021-12-03T10:19:00Z,27.2141,-90.2785,459.9,13.3,11111222
BP,ioos:station:wmo:42369:2,2021-12-03T10:39:00Z,27.2141,-90.2785,459.9,13.3,11111222
BP,ioos:station:wmo:42369:2,2021-12-03T10:59:00Z,27.2141,-90.2784,460.2,13.3,11111222
BP,ioos:station:wmo:42369:2,2021-12-03T11:19:00Z,27.2141,-90.2784,460.4,13.3,11111222
BP,ioos:station:wmo:42369:2,2021-12-03T11:39:00Z,27.2140,-90.2784,460.5,13.2,11111222
BP,ioos:station:wmo:42369:2,2021-12-03T11:59:00Z,27.2140,-90.2784,460.4,13.2,11111222
BP,ioos:station:wmo:42369:2,2021-12-03T12:19:00Z,27.2140,-90.2785,460.1,13.2,11111222
BP,ioos:station:wmo:42369:2,2021-12-03T12:39:00Z,27.2141,-90.2785,460.4,13.3,11111222
BP,ioos:station:wmo:42369:2,2021-12-03T12:59:00Z,27.2141,-90.2786,459.4,13.3,11111222
BP,ioos:station:wmo:42369:2,2021-12-03T13:19:00Z,27.2141,-90.2786,459.2,13.3,11111222
BP,ioos:station:wmo:42369:2,2021-12-03T13:39:00Z,27.2140,-90.2786,458.1,13.4,11111222
BP,ioos:station:wmo:42369:2,2021-12-03T13:59:00Z,27.2140,-90.2786,458.5,13.3,11111222
BP,ioos:station:wmo:42369:2,2021-12-03T14:19:00Z,27.2140,-90.2787,458.2,13.3,11111222
BP,ioos:station:wmo:42369:2,2021-12-03T14:39:00Z,27.2140,-90.2787,458.0,13.2,11111222
BP,ioos:station:wmo:42369:2,2021-12-03T14:59:00Z,27.2140,-90.2787,457.4,13.3,11111222
BP,ioos:station:wmo:42369:2,2021-12-03T15:19:00Z,27.2140,-90.2787,457.6,13.3,11111222
BP,ioos:station:wmo:42369:2,2021-12-03T15:39:00Z,27.2140,-90.2787,458.0,13.2,11111222
BP,ioos:station:wmo:42369:2,2021-12-03T15:59:00Z,27.2140,-90.2787,458.0,13.2,11111222
BP,ioos:station:wmo:42369:2,2021-12-03T16:19:00Z,27.2141,-90.2788,459.2,13.2,11111222
BP,ioos:station:wmo:42369:2,2021-12-03T16:39:00Z,27.2141,-90.2788,458.4,13.2,11111222
BP,ioos:station:wmo:42369:2,2021-12-03T16:59:00Z,27.2141,-90.2788,460.1,13.2,11111222
BP,ioos:station:wmo:42369:2,2021-12-03T17:19:00Z,27.2142,-90.2790,460.1,13.2,11111222
BP,ioos:station:wmo:42369:2,2021-12-03T17:39:00Z,27.2143,-90.2790,460.2,13.2,11111222
BP,ioos:station:wmo:42369:2,2021-12-03T17:59:00Z,27.2143,-90.2790,460.4,13.1,11111222
BP,ioos:station:wmo:42369:2,2021-12-03T18:19:00Z,27.2143,-90.2790,460.6,13.1,11111222
BP,ioos:station:wmo:42369:2,2021-12-03T18:39:00Z,27.2143,-90.2790,461.0,13.2,11111222
BP,ioos:station:wmo:42369:2,2021-12-03T18:59:00Z,27.2143,-90.2790,461.2,13.1,11111222
BP,ioos:station:wmo:42369:2,2021-12-03T19:19:00Z,27.2144,-90.2790,462.4,13.1,11111222
BP,ioos:station:wmo:42369:2,2021-12-03T19:39:00Z,27.2144,-90.2791,462.2,13.1,11111222
BP,ioos:station:wmo:42369:2,2021-12-03T19:59:00Z,27.2144,-90.2791,462.5,13.1,11111222
BP,ioos:station:wmo:42369:2,2021-12-03T20:19:00Z,27.2144,-90.2791,463.3,13.2,11111222
BP,ioos:station:wmo:42369:2,2021-12-03T20:39:00Z,27.2145,-90.2792,464.0,13.2,11111222
BP,ioos:station:wmo:42369:2,2021-12-03T20:59:00Z,27.2145,-90.2792,464.7,13.1,11111222
BP,ioos:station:wmo:42369:2,2021-12-03T21:19:00Z,27.2146,-90.2794,464.8,13.1,11111222
BP,ioos:station:wmo:42369:2,2021-12-03T21:39:00Z,27.2146,-90.2795,464.7,13.0,11111222
BP,ioos:station:wmo:42369:2,2021-12-03T21:59:00Z,27.2147,-90.2797,464.7,13.1,11111222
BP,ioos:station:wmo:42369:2,2021-12-03T22:19:00Z,27.2147,-90.2797,465.3,13.0,11111222
BP,ioos:station:wmo:42369:2,2021-12-03T22:39:00Z,27.2145,-90.2794,464.9,13.0,11111222
BP,ioos:station:wmo:42369:2,2021-12-03T22:59:00Z,27.2143,-90.2788,462.9,12.9,11111222
BP,ioos:station:wmo:42369:2,2021-12-03T23:19:00Z,27.2141,-90.2784,462.1,13.0,11111222
BP,ioos:station:wmo:42369:2,2021-12-03T23:39:00Z,27.2140,-90.2783,460.5,13.0,11111222
BP,ioos:station:wmo:42369:2,2021-12-03T23:59:00Z,27.2140,-90.2783,460.1,13.1,11111222
BP,ioos:station:wmo:42369:2,2021-12-04T00:19:00Z,27.2140,-90.2782,460.1,13.3,11111222
BP,ioos:station:wmo:42369:2,2021-12-04T00:39:00Z,27.2140,-90.2783,460.3,13.0,11111222
BP,ioos:station:wmo:42369:2,2021-12-04T00:59:00Z,27.2140,-90.2783,459.5,12.9,11111222
BP,ioos:station:wmo:42369:2,2021-12-04T01:19:00Z,27.2140,-90.2784,460.3,12.9,11111222
BP,ioos:station:wmo:42369:2,2021-12-04T01:39:00Z,27.2141,-90.2785,460.2,12.9,11111222
BP,ioos:station:wmo:42369:2,2021-12-04T01:59:00Z,27.2141,-90.2785,460.0,13.2,11111222
BP,ioos:station:wmo:42369:2,2021-12-04T02:19:00Z,27.2141,-90.2785,459.9,13.2,11111222
BP,ioos:station:wmo:42369:2,2021-12-04T02:39:00Z,27.2141,-90.2785,459.9,13.0,11111222
BP,ioos:station:wmo:42369:2,2021-12-04T02:59:00Z,27.2141,-90.2785,459.7,12.9,11111222
BP,ioos:station:wmo:42369:2,2021-12-04T03:19:00Z,27.2141,-90.2786,459.0,12.9,11111222
BP,ioos:station:wmo:42369:2,2021-12-04T03:39:00Z,27.2142,-90.2787,459.5,13.0,11111222
BP,ioos:station:wmo:42369:2,2021-12-04T03:59:00Z,27.2142,-90.2787,458.9,13.0,11111222
BP,ioos:station:wmo:42369:2,2021-12-04T04:19:00Z,27.2142,-90.2788,458.9,12.9,11111222
BP,ioos:station:wmo:42369:2,2021-12-04T04:39:00Z,27.2142,-90.2789,458.7,13.0,11111222
BP,ioos:station:wmo:42369:2,2021-12-04T04:59:00Z,27.2142,-90.2789,458.9,13.1,11111222
BP,ioos:station:wmo:42369:2,2021-12-04T05:19:00Z,27.2142,-90.2790,458.0,13.1,11111222
BP,ioos:station:wmo:42369:2,2021-12-04T05:39:00Z,27.2142,-90.2789,458.6,13.1,11111222
BP,ioos:station:wmo:42369:2,2021-12-04T05:59:00Z,27.2142,-90.2789,459.5,13.2,11111222
BP,ioos:station:wmo:42369:2,2021-12-04T06:19:00Z,27.2142,-90.2789,459.8,13.2,11111222
BP,ioos:station:wmo:42369:2,2021-12-04T06:39:00Z,27.2142,-90.2788,459.6,13.2,11111222
BP,ioos:station:wmo:42369:2,2021-12-04T06:59:00Z,27.2142,-90.2787,459.9,13.2,11111222
BP,ioos:station:wmo:42369:2,2021-12-04T07:19:00Z,27.2142,-90.2786,460.7,13.1,11111222
BP,ioos:station:wmo:42369:2,2021-12-04T07:39:00Z,27.2142,-90.2786,460.9,13.1,11111222
BP,ioos:station:wmo:42369:2,2021-12-04T07:59:00Z,27.2142,-90.2785,461.5,13.1,11111222
BP,ioos:station:wmo:42369:2,2021-12-04T08:19:00Z,27.2142,-90.2785,462.2,13.0,11111222
BP,ioos:station:wmo:42369:2,2021-12-04T08:39:00Z,27.2142,-90.2785,462.6,13.0,11111222
BP,ioos:station:wmo:42369:2,2021-12-04T08:59:00Z,27.2142,-90.2784,463.7,13.0,11111222
BP,ioos:station:wmo:42369:2,2021-12-04T09:39:00Z,27.2142,-90.2782,464.5,12.9,11111222
BP,ioos:station:wmo:42369:2,2021-12-04T09:59:00Z,27.2142,-90.2782,464.8,12.9,11111222
BP,ioos:station:wmo:42369:2,2021-12-04T10:19:00Z,27.2142,-90.2782,466.4,12.8,11111222
BP,ioos:station:wmo:42369:2,2021-12-04T10:39:00Z,27.2142,-90.2782,466.3,12.8,11111222
BP,ioos:station:wmo:42369:2,2021-12-04T10:59:00Z,27.2142,-90.2782,466.1,12.8,11111222
BP,ioos:station:wmo:42369:2,2021-12-04T11:19:00Z,27.2142,-90.2782,466.2,12.8,11111222
BP,ioos:station:wmo:42369:2,2021-12-04T11:39:00Z,27.2142,-90.2782,466.7,12.9,11111222
BP,ioos:station:wmo:42369:2,2021-12-04T11:59:00Z,27.2142,-90.2782,465.9,12.9,11111222
BP,ioos:station:wmo:42369:2,2021-12-04T12:19:00Z,27.2142,-90.2782,465.1,12.9,11111222
BP,ioos:station:wmo:42369:2,2021-12-04T12:39:00Z,27.2142,-90.2782,464.4,12.9,11111222
BP,ioos:station:wmo:42369:2,2021-12-04T12:59:00Z,27.2142,-90.2782,463.7,12.9,11111222
BP,ioos:station:wmo:42369:2,2021-12-04T13:19:00Z,27.2142,-90.2782,464.3,12.9,11111222
BP,ioos:station:wmo:42369:2,2021-12-04T13:39:00Z,27.2142,-90.2782,464.4,12.9,11111222
BP,ioos:station:wmo:42369:2,2021-12-04T13:59:00Z,27.2142,-90.2783,463.8,13.1,11111222
BP,ioos:station:wmo:42369:2,2021-12-04T14:19:00Z,27.2143,-90.2784,463.7,13.1,11111222
BP,ioos:station:wmo:42369:2,2021-12-04T14:39:00Z,27.2142,-90.2785,462.9,13.0,11111222
BP,ioos:station:wmo:42369:2,2021-12-04T14:59:00Z,27.2142,-90.2785,462.9,12.9,11111222
BP,ioos:station:wmo:42369:2,2021-12-04T15:19:00Z,27.2142,-90.2786,463.1,13.0,11111222
BP,ioos:station:wmo:42369:2,2021-12-04T15:39:00Z,27.2142,-90.2786,460.8,12.9,11111222
BP,ioos:station:wmo:42369:2,2021-12-04T15:59:00Z,27.2142,-90.2787,459.9,13.0,11111222
BP,ioos:station:wmo:42369:2,2021-12-04T16:19:00Z,27.2141,-90.2787,459.4,12.9,11111222
BP,ioos:station:wmo:42369:2,2021-12-04T16:39:00Z,27.2141,-90.2787,459.1,13.1,11111222
BP,ioos:station:wmo:42369:2,2021-12-04T16:59:00Z,27.2140,-90.2788,457.7,13.0,11111222
BP,ioos:station:wmo:42369:2,2021-12-04T17:19:00Z,27.2140,-90.2788,456.7,13.1,11111222
BP,ioos:station:wmo:42369:2,2021-12-04T17:39:00Z,27.2140,-90.2788,456.1,13.0,11111222
BP,ioos:station:wmo:42369:2,2021-12-04T17:59:00Z,27.2139,-90.2788,454.9,13.0,11111222
BP,ioos:station:wmo:42369:2,2021-12-04T18:19:00Z,27.2138,-90.2786,453.8,13.2,11111222
BP,ioos:station:wmo:42369:2,2021-12-04T18:39:00Z,27.2137,-90.2785,453.8,13.1,11111222
BP,ioos:station:wmo:42369:2,2021-12-04T18:59:00Z,27.2136,-90.2783,454.0,13.2,11111222
BP,ioos:station:wmo:42369:2,2021-12-04T19:19:00Z,27.2135,-90.2781,453.9,13.3,11111222
BP,ioos:station:wmo:42369:2,2021-12-04T19:39:00Z,27.2134,-90.2779,454.9,13.2,11111222